[[{"header":{"parameterUnit":"m.s-1","parameterCategory":1,"la1":30.2991,"la2":30.254,"lo1":-89.0895,"lo2":-89.0444,"dy":0.0017,"dx":0.0017,"nx":28,"ny":28,"refTime":"2024-10-07T03:00:00:Z","depth":0,"parameterNumber":2,"parameterNumberName":"U-component_of_WINDS"},"data":[0,0,0,0,0,0,0,0,0,0,0,0,0,0,0,0,0,0,0,0,0,0,0,0,0,0,0,0,0,0,0,0,0,0,0,0,0,0,0,0,0,0,0,0,0,0,0,0,0,0,0,0,0,0,0,0,0,0,-2.6747,-2.6748,0,-2.6845,-2.6846,-2.6848,-2.6803,-2.68,-2.6798,-2.6796,-2.6901,-2.6906,-2.6911,0,0,0,0,0,0,0,0,0,0,0,0,0,-2.6524,-2.6529,-2.6746,-2.6748,-2.6749,-2.6845,-2.6847,-2.6848,-2.6803,-2.68,-2.6797,-2.6794,-2.69,-2.6906,-2.6912,0,0,0,0,0,0,0,0,0,0,0,0,0,-2.6622,-2.653,-2.6746,-2.6738,-2.6738,-2.6845,-2.6847,-2.6848,-2.6804,-2.68,-2.6796,-2.6793,-2.6898,-2.6905,-2.6913,-2.7034,0,0,-2.6936,-2.694,0,0,0,0,0,0,0,0,-2.6616,-2.663,-2.6738,-2.6739,-2.6739,-2.6808,-2.6807,-2.6911,-2.6805,-2.6779,-2.6795,-2.6791,-2.6874,-2.6883,-2.691,-2.7039,-2.7044,-2.6937,-2.6942,-2.6945,-2.6947,0,0,0,0,0,0,0,-2.661,-2.6626,-2.6786,-2.674,-2.6741,-2.6731,-2.6741,-2.6827,-2.6846,-2.6781,-2.6778,-2.679,-2.6873,-2.6903,-2.6912,-2.7045,-2.6937,-2.6944,-2.6948,-2.6951,-2.7284,-2.7288,0,0,0,0,0,0,-2.6602,-2.662,-2.6782,-2.6789,-2.6667,-2.6738,-2.6749,-2.679,-2.6845,-2.685,-2.6793,-2.6788,-2.6891,-2.6903,-2.6916,-2.7064,-2.6945,-2.6952,-2.6956,-2.7279,-2.7285,-2.7289,0,0,0,0,0,0,-2.6598,-2.6617,-2.6778,-2.6704,-2.6723,-2.6746,-2.6792,-2.6794,-2.6823,-2.6854,-2.6858,-2.6819,-2.6889,-2.6905,-2.7006,-2.7067,-2.6955,-2.6962,-2.7274,-2.7281,-2.7287,-2.7361,0,0,0,0,0,0,-2.6592,-2.6616,-2.6661,-2.6705,-2.6728,-2.6866,-2.6796,-2.6798,-2.6836,-2.6829,-2.688,-2.6884,-2.6887,-2.6995,-2.7013,-2.7076,-2.6968,-2.7269,-2.7277,-2.7285,-2.7354,-2.7369,-2.7383,0,0,0,0,0,-2.6584,-2.6678,-2.6663,-2.6683,-2.6784,-2.6869,-2.6882,-2.6882,-2.6841,-2.6887,-2.6908,-2.6883,-2.7057,-2.7005,-2.7026,-2.7092,-2.7265,-2.7275,-2.7284,-2.7347,-2.7366,-2.7383,0,0,0,0,0,0,-2.6642,-2.6684,-2.6668,-2.6779,-2.6821,-2.6861,-2.692,-2.6902,-2.6958,-2.695,-2.6949,-2.696,-2.7066,-2.7088,-2.703,-2.7214,-2.7155,-2.7169,-2.7196,-2.7214,-2.7229,-2.7222,-2.6975,0,0,0,0,0,-2.6667,-2.6731,-2.6765,-2.686,-2.6881,-2.6897,-2.6934,-2.6931,-2.6974,-2.6992,-2.702,-2.7065,-2.713,-2.7173,-2.7234,-2.7356,-2.7368,-2.7412,-2.7426,-2.7438,-2.7452,-2.7521,-2.7542,-2.732,-2.732,-2.732,0,0,-2.6721,-2.6752,-2.6792,-2.6872,-2.6904,-2.6973,-2.6912,-2.6987,-2.7038,-2.7004,-2.7101,-2.7124,-2.7174,-2.7286,-2.7337,-2.7309,-2.7515,-2.7451,-2.746,-2.7467,-2.7533,-2.7554,-2.7573,-2.7327,-2.7326,-2.7325,0,0,-2.6855,-2.6883,-2.6967,-2.7,-2.7049,-2.7059,-2.7079,-2.7123,-2.7136,-2.7233,-2.721,-2.7272,-2.7383,-2.7421,-2.7455,-2.7605,-2.7585,-2.7625,-2.7703,-2.7771,-2.7788,-2.7804,-2.786,-2.788,-2.7637,-2.7637,-2.7638,0,-2.6916,-2.7016,-2.7012,-2.7089,-2.7126,-2.7097,-2.7184,-2.7216,-2.7284,-2.7311,-2.7277,-2.7418,-2.745,-2.7573,-2.7609,-2.7636,-2.7662,-2.762,-2.7786,-2.7801,-2.7816,-2.787,-2.7891,-2.7642,-2.7642,-2.7641,-2.7641,0,-2.7091,-2.7161,-2.7223,-2.7288,-2.7332,-2.7413,-2.7424,-2.7469,-2.7462,-2.7476,-2.7578,-2.7614,-2.7684,-2.7713,-2.7706,-2.7836,-2.7817,-2.7784,-2.7726,-2.7842,-2.7893,-2.7913,-2.7649,-2.7647,-2.7646,-2.7645,0,0,-2.7264,-2.7327,-2.735,-2.738,-2.7433,-2.7488,-2.7569,-2.7636,-2.7677,-2.7724,-2.7794,-2.789,-2.7861,-2.7899,-2.7897,-2.7956,-2.8077,-2.7917,-2.7918,-2.7948,-2.8226,-2.8252,-2.8276,-2.8063,-2.8067,-2.807,-2.8222,0,-2.7404,-2.7545,-2.7544,-2.7675,-2.7742,-2.7716,-2.7787,-2.7828,-2.7844,-2.7905,-2.7923,-2.7992,-2.7947,-2.797,-2.8027,-2.805,-2.8133,-2.8039,-2.8132,-2.8135,-2.8122,-2.8302,-2.8329,-2.8471,-2.8242,-2.8245,-2.8248,0,-2.7586,-2.7639,-2.7777,-2.7822,-2.785,-2.7913,-2.7977,-2.8034,-2.8081,-2.8089,-2.8133,-2.8122,-2.8207,-2.8144,-2.8263,-2.8199,-2.8237,-2.8254,-2.826,-2.8271,-2.82,-2.8321,-2.8516,-2.8539,-2.8278,-2.8276,-2.8274,0,-2.7703,-2.7809,-2.7905,-2.7932,-2.7986,-2.8032,-2.8057,-2.81,-2.8142,-2.8197,-2.8225,-2.8289,-2.8326,-2.8378,-2.8386,-2.8339,-2.8508,-2.8444,-2.8519,-2.852,-2.8558,-2.8556,-2.8766,-2.8578,-2.8577,-2.8577,-2.8576,0,-2.786,-2.7947,-2.7959,-2.8019,-2.8115,-2.8115,-2.8211,-2.8232,-2.8271,-2.8337,-2.8318,-2.838,-2.8386,-2.8451,-2.8458,-2.8558,-2.8574,-2.8585,-2.8586,-2.8589,-2.8588,-2.8615,-2.8607,-2.8582,-2.8581,-2.858,-2.8579,0,-2.8008,-2.8019,-2.8124,-2.8167,-2.8179,-2.8249,-2.8287,-2.8346,-2.8359,-2.8443,-2.8462,-2.8486,-2.8561,-2.8574,-2.8663,-2.8668,-2.8789,-2.8778,-2.8773,-2.8773,-2.8848,-2.8842,-2.9086,-2.9119,-2.8906,-2.8908,-2.891,0,-2.811,-2.8175,-2.8225,-2.8267,-2.8295,-2.8362,-2.8404,-2.8406,-2.8452,-2.8512,-2.8564,-2.8637,-2.8696,-2.8819,-2.8845,-2.8914,-2.8908,-2.8988,-2.8918,-2.8919,-2.8913,-2.891,-2.8919,-2.9003,-2.9005,-2.9007,-2.9008,0,-2.829,-2.8292,-2.8353,-2.8417,-2.8467,-2.8518,-2.8566,-2.8602,-2.861,-2.8663,-2.8739,-2.8785,-2.8876,-2.8951,-2.902,-2.9048,-2.9032,-2.903,-2.9051,-2.9056,-2.9051,-2.9058,-2.8813,-2.9025,-2.9023,-2.9022,-2.9021,-2.902,-2.842,-2.8478,-2.8523,-2.8592,-2.8628,-2.8674,-2.8732,-2.8753,-2.8816,-2.889,-2.8888,-2.8973,-2.9021,-2.9112,-2.9145,-2.9213,-2.9187,-2.9218,-2.9226,-2.9235,-2.9244,-2.9038,-2.9225,-2.9225,-2.9224,-2.9224,-2.9223,0,-2.8602,-2.8629,-2.8693,-2.876,-2.8816,-2.8792,-2.8845,-2.8893,-2.8968,-2.9013,-2.9072,-2.9162,-2.9235,-2.9267,-2.9339,-2.9388,-2.9382,-2.9407,-2.9405,-2.9413,-2.9261,-2.9236,-2.941,-2.941,-2.941,-2.941,-2.941,-2.941,-2.8703,-2.8802,-2.881,-2.8927,-2.8955,-2.9037,-2.907,-2.9113,-2.9149,-2.925,-2.931,-2.9329,-2.9371,-2.9446,-2.9513,-2.952,-2.955,-2.9579,-2.9584,-2.9442,-2.9423,-2.9405,-2.9382,-2.9584,-2.9584,-2.973,-2.9732,-2.9733]},{"header":{"parameterUnit":"m.s-1","parameterCategory":1,"la1":30.2991,"la2":30.254,"lo1":-89.0895,"lo2":-89.0444,"dy":0.0017,"dx":0.0017,"nx":28,"ny":28,"refTime":"2024-10-07T03:00:00:Z","depth":0,"parameterNumber":3,"parameterNumberName":"V-component_of_WINDS"},"data":[0,0,0,0,0,0,0,0,0,0,0,0,0,0,0,0,0,0,0,0,0,0,0,0,0,0,0,0,0,0,0,0,0,0,0,0,0,0,0,0,0,0,0,0,0,0,0,0,0,0,0,0,0,0,0,0,0,0,-3.6527,-3.6528,0,-3.6566,-3.6566,-3.6567,-3.6561,-3.6561,-3.656,-3.6559,-3.6597,-3.6599,-3.66,0,0,0,0,0,0,0,0,0,0,0,0,0,-3.645,-3.6452,-3.6527,-3.6528,-3.6528,-3.6566,-3.6566,-3.6567,-3.6561,-3.6561,-3.656,-3.6559,-3.6597,-3.6599,-3.6601,0,0,0,0,0,0,0,0,0,0,0,0,0,-3.6486,-3.6452,-3.6527,-3.653,-3.6531,-3.6566,-3.6566,-3.6567,-3.6562,-3.6561,-3.656,-3.6559,-3.6596,-3.6598,-3.6601,-3.6635,0,0,-3.6608,-3.6609,0,0,0,0,0,0,0,0,-3.6484,-3.6488,-3.6529,-3.653,-3.6531,-3.6558,-3.6553,-3.659,-3.6562,-3.655,-3.6559,-3.6558,-3.6585,-3.6588,-3.6597,-3.6636,-3.6638,-3.6608,-3.661,-3.6611,-3.6612,0,0,0,0,0,0,0,-3.6481,-3.6487,-3.6543,-3.653,-3.6531,-3.653,-3.6534,-3.656,-3.6572,-3.6551,-3.6551,-3.6555,-3.6585,-3.6595,-3.6598,-3.6639,-3.6608,-3.661,-3.6612,-3.6613,-3.671,-3.6712,0,0,0,0,0,0,-3.6478,-3.6485,-3.6541,-3.6544,-3.6505,-3.6532,-3.6536,-3.655,-3.6572,-3.6574,-3.6556,-3.6555,-3.6591,-3.6595,-3.6599,-3.6642,-3.6611,-3.6613,-3.6615,-3.6709,-3.6711,-3.6712,0,0,0,0,0,0,-3.6476,-3.6483,-3.654,-3.6514,-3.6521,-3.6534,-3.655,-3.6551,-3.6561,-3.6576,-3.6578,-3.6564,-3.6591,-3.6596,-3.6627,-3.6643,-3.6614,-3.6616,-3.6708,-3.671,-3.6711,-3.6726,0,0,0,0,0,0,-3.6474,-3.6483,-3.6495,-3.6515,-3.6523,-3.6566,-3.6551,-3.6553,-3.6566,-3.6564,-3.6584,-3.6586,-3.659,-3.6623,-3.6629,-3.6646,-3.6618,-3.6706,-3.6709,-3.6711,-3.6724,-3.6728,-3.6731,0,0,0,0,0,-3.6471,-3.6497,-3.6496,-3.6503,-3.6539,-3.6567,-3.6572,-3.6576,-3.6567,-3.658,-3.659,-3.6585,-3.6641,-3.6626,-3.6633,-3.6651,-3.6705,-3.6708,-3.6711,-3.6722,-3.6727,-3.6731,0,0,0,0,0,0,-3.6477,-3.6499,-3.6498,-3.6531,-3.6547,-3.6566,-3.6582,-3.6581,-3.66,-3.6598,-3.6603,-3.6608,-3.6639,-3.6648,-3.6632,-3.6686,-3.6672,-3.6676,-3.6679,-3.6683,-3.6687,-3.6684,-3.662,0,0,0,0,0,-3.6483,-3.6504,-3.6522,-3.6549,-3.6557,-3.6569,-3.6581,-3.6584,-3.6601,-3.6607,-3.6619,-3.6636,-3.6657,-3.6671,-3.6691,-3.6726,-3.6731,-3.6742,-3.6746,-3.6749,-3.6752,-3.6773,-3.6778,-3.672,-3.672,-3.672,0,0,-3.6493,-3.6508,-3.6521,-3.655,-3.6563,-3.6586,-3.6574,-3.6597,-3.6614,-3.6611,-3.6641,-3.6651,-3.667,-3.6703,-3.6718,-3.6711,-3.6769,-3.6752,-3.6754,-3.6756,-3.6776,-3.6781,-3.6786,-3.6722,-3.6722,-3.6722,0,0,-3.6524,-3.6537,-3.6562,-3.6576,-3.6596,-3.6604,-3.6611,-3.663,-3.6637,-3.6668,-3.6666,-3.6687,-3.6723,-3.6737,-3.6749,-3.6789,-3.6786,-3.6796,-3.6814,-3.6835,-3.684,-3.6844,-3.6859,-3.6864,-3.6799,-3.6799,-3.6799,0,-3.6534,-3.6567,-3.6574,-3.6599,-3.6613,-3.6612,-3.6638,-3.6651,-3.6677,-3.6687,-3.668,-3.6727,-3.674,-3.6777,-3.6788,-3.6797,-3.6805,-3.6793,-3.6838,-3.6843,-3.6846,-3.6861,-3.6867,-3.68,-3.68,-3.68,-3.68,0,-3.6579,-3.6603,-3.6621,-3.6647,-3.6663,-3.6688,-3.67,-3.6715,-3.6718,-3.6727,-3.6759,-3.6775,-3.6799,-3.6809,-3.6811,-3.6848,-3.6843,-3.6837,-3.6823,-3.6853,-3.6867,-3.6872,-3.6802,-3.6801,-3.6801,-3.6801,0,0,-3.6612,-3.6645,-3.6651,-3.6664,-3.6689,-3.6707,-3.6733,-3.6758,-3.6772,-3.6791,-3.6813,-3.6846,-3.6841,-3.6855,-3.6859,-3.6877,-3.691,-3.6869,-3.687,-3.6876,-3.6953,-3.6957,-3.6964,-3.6909,-3.691,-3.6911,-3.6952,0,-3.6645,-3.6691,-3.67,-3.674,-3.6763,-3.6765,-3.6788,-3.6806,-3.6816,-3.6837,-3.6848,-3.6871,-3.6863,-3.6872,-3.689,-3.6902,-3.6925,-3.6899,-3.693,-3.6931,-3.6924,-3.6971,-3.6974,-3.7012,-3.6957,-3.6958,-3.6959,0,-3.6689,-3.6711,-3.6754,-3.6778,-3.6788,-3.6808,-3.6833,-3.6853,-3.6875,-3.6881,-3.6898,-3.6901,-3.6929,-3.6915,-3.6955,-3.6937,-3.695,-3.6959,-3.696,-3.6963,-3.6946,-3.6974,-3.7024,-3.703,-3.6967,-3.6966,-3.6966,0,-3.6709,-3.6749,-3.6781,-3.6792,-3.682,-3.6835,-3.6848,-3.6868,-3.6884,-3.6906,-3.6917,-3.6942,-3.6955,-3.6975,-3.6985,-3.6974,-3.7024,-3.701,-3.7031,-3.7031,-3.704,-3.7039,-3.7093,-3.705,-3.705,-3.7049,-3.7049,0,-3.6744,-3.6771,-3.679,-3.6809,-3.684,-3.685,-3.688,-3.6893,-3.6912,-3.6934,-3.6937,-3.6958,-3.6971,-3.6994,-3.7002,-3.7034,-3.704,-3.7047,-3.7048,-3.7046,-3.7045,-3.7054,-3.7052,-3.7051,-3.7051,-3.705,-3.705,0,-3.6771,-3.6785,-3.682,-3.6845,-3.6853,-3.6874,-3.6896,-3.6915,-3.6927,-3.6955,-3.6963,-3.698,-3.7008,-3.7021,-3.7054,-3.706,-3.7097,-3.7097,-3.709,-3.7091,-3.711,-3.7109,-3.7171,-3.718,-3.7131,-3.7132,-3.7132,0,-3.6792,-3.6813,-3.6842,-3.6858,-3.6871,-3.6896,-3.6913,-3.6925,-3.6942,-3.697,-3.6987,-3.7015,-3.7038,-3.7082,-3.7098,-3.7125,-3.7126,-3.7146,-3.7129,-3.7127,-3.7126,-3.7125,-3.7128,-3.7148,-3.7149,-3.7149,-3.715,0,-3.6829,-3.6836,-3.686,-3.6888,-3.6908,-3.693,-3.6951,-3.6964,-3.698,-3.6999,-3.7028,-3.7047,-3.7083,-3.7111,-3.7139,-3.7153,-3.7154,-3.7155,-3.7161,-3.7159,-3.7154,-3.7158,-3.7098,-3.7153,-3.7153,-3.7152,-3.7152,-3.7152,-3.6854,-3.6873,-3.6898,-3.6925,-3.6943,-3.6964,-3.6984,-3.7,-3.7024,-3.7055,-3.7061,-3.7092,-3.7116,-3.7154,-3.7169,-3.7194,-3.7189,-3.7198,-3.72,-3.7202,-3.7204,-3.7151,-3.7199,-3.7199,-3.7199,-3.7199,-3.7199,0,-3.6892,-3.6908,-3.6934,-3.6965,-3.6987,-3.6988,-3.7013,-3.7031,-3.7059,-3.7081,-3.7105,-3.7139,-3.7168,-3.7188,-3.7217,-3.7233,-3.7235,-3.724,-3.7239,-3.7242,-3.7206,-3.7198,-3.7239,-3.7239,-3.7239,-3.7239,-3.7239,-3.7239,-3.6914,-3.6947,-3.6958,-3.7001,-3.7017,-3.7049,-3.7063,-3.7083,-3.7101,-3.714,-3.7164,-3.7177,-3.7199,-3.723,-3.7257,-3.7262,-3.7272,-3.7278,-3.7283,-3.7249,-3.7245,-3.7241,-3.7233,-3.7281,-3.7281,-3.7318,-3.7318,-3.7318]}]]